Data supplied by UK-AIR on 8/12/2022
All Data GMT hour ending 
Status: R =Ratified P=Provisional,P*=As supplied
,,Lullington Heath,,,,,,,,,,,,,,,,,,,,,,,
Date,time,"Nitric oxide",status,unit,"Nitrogen dioxide",status,unit,"Nitrogen oxides as nitrogen dioxide",status,unit,"Ozone",status,unit,"Sulphur dioxide",status,unit
 
01-01-2021,01:00,0.94515,R,ugm-3,18.53728,R,ugm-3,19.98649,R,ugm-3,30.49617,R,ugm-3,1.21089,R,ugm-3
01-01-2021,02:00,1.71027,R,ugm-3,14.70856,R,ugm-3,17.33095,R,ugm-3,32.82523,R,ugm-3,1.11774,R,ugm-3
01-01-2021,03:00,1.14768,R,ugm-3,11.18604,R,ugm-3,12.94580,R,ugm-3,40.39468,R,ugm-3,1.39718,R,ugm-3
01-01-2021,04:00,1.21519,R,ugm-3,10.24393,R,ugm-3,12.10720,R,ugm-3,42.25066,R,ugm-3,1.39718,R,ugm-3
01-01-2021,05:00,1.58650,R,ugm-3,9.04565,R,ugm-3,11.47826,R,ugm-3,44.27039,R,ugm-3,1.11774,R,ugm-3
01-01-2021,06:00,1.24895,R,ugm-3,9.87770,R,ugm-3,11.79273,R,ugm-3,43.01488,R,ugm-3,1.25746,R,ugm-3
01-01-2021,07:00,1.38397,R,ugm-3,8.41278,R,ugm-3,10.53484,R,ugm-3,44.65250,R,ugm-3,1.18760,R,ugm-3
01-01-2021,08:00,1.31646,R,ugm-3,7.46805,R,ugm-3,9.48660,R,ugm-3,47.16352,R,ugm-3,0.48901,R,ugm-3
01-01-2021,09:00,1.24895,R,ugm-3,5.94679,R,ugm-3,7.86182,R,ugm-3,50.38418,R,ugm-3,1.04788,R,ugm-3
01-01-2021,10:00,1.62026,R,ugm-3,5.01057,R,ugm-3,7.49494,R,ugm-3,52.62226,R,ugm-3,1.04788,R,ugm-3
01-01-2021,11:00,1.41773,R,ugm-3,5.32112,R,ugm-3,7.49494,R,ugm-3,51.36675,R,ugm-3,1.25746,R,ugm-3
01-01-2021,12:00,1.41773,R,ugm-3,6.05489,R,ugm-3,8.22871,R,ugm-3,46.61765,R,ugm-3,0.97802,R,ugm-3
01-01-2021,13:00,1.58650,R,ugm-3,6.37263,R,ugm-3,8.80524,R,ugm-3,42.30524,R,ugm-3,0.34929,R,ugm-3
01-01-2021,14:00,1.62026,R,ugm-3,6.42570,R,ugm-3,8.91006,R,ugm-3,41.86854,R,ugm-3,1.18760,R,ugm-3
01-01-2021,15:00,1.51899,R,ugm-3,7.47198,R,ugm-3,9.80107,R,ugm-3,37.44696,R,ugm-3,1.46704,R,ugm-3
01-01-2021,16:00,1.85655,R,ugm-3,8.94607,R,ugm-3,11.79273,R,ugm-3,32.20657,R,ugm-3,1.74647,R,ugm-3
01-01-2021,17:00,1.82279,R,ugm-3,10.04606,R,ugm-3,12.84097,R,ugm-3,27.12994,R,ugm-3,1.25746,R,ugm-3
01-01-2021,18:00,1.55275,R,ugm-3,10.51254,R,ugm-3,12.89339,R,ugm-3,25.43773,R,ugm-3,0.62873,R,ugm-3
01-01-2021,19:00,1.38397,R,ugm-3,13.44434,R,ugm-3,15.56640,R,ugm-3,20.47028,R,ugm-3,0.62873,R,ugm-3
01-01-2021,20:00,1.24895,R,ugm-3,15.95751,R,ugm-3,17.87254,R,ugm-3,17.41339,R,ugm-3,1.04788,R,ugm-3
01-01-2021,21:00,1.11393,R,ugm-3,17.73690,R,ugm-3,19.44490,R,ugm-3,13.48309,R,ugm-3,0.97802,R,ugm-3
01-01-2021,22:00,1.48524,R,ugm-3,18.21581,R,ugm-3,20.49314,R,ugm-3,10.69913,R,ugm-3,1.32732,R,ugm-3
01-01-2021,23:00,1.75528,R,ugm-3,18.53552,R,ugm-3,21.22691,R,ugm-3,10.20785,R,ugm-3,1.32732,R,ugm-3
01-01-2021,24:00,1.68777,R,ugm-3,18.63904,R,ugm-3,21.22691,R,ugm-3,9.33445,R,ugm-3,1.60676,R,ugm-3
02-01-2021,01:00,1.80072,R,ugm-3,19.81420,R,ugm-3,22.57526,R,ugm-3,9.31337,R,ugm-3,1.11818,R,ugm-3
02-01-2021,02:00,1.89076,R,ugm-3,18.48798,R,ugm-3,21.38709,R,ugm-3,9.96822,R,ugm-3,1.49091,R,ugm-3
02-01-2021,03:00,1.68817,R,ugm-3,16.43972,R,ugm-3,19.02822,R,ugm-3,13.42435,R,ugm-3,1.67727,R,ugm-3
02-01-2021,04:00,1.65441,R,ugm-3,11.93101,R,ugm-3,14.46774,R,ugm-3,20.02738,R,ugm-3,1.39773,R,ugm-3
02-01-2021,05:00,1.41807,R,ugm-3,6.63211,R,ugm-3,8.80645,R,ugm-3,31.05063,R,ugm-3,0.83864,R,ugm-3
02-01-2021,06:00,1.38430,R,ugm-3,7.73227,R,ugm-3,9.85484,R,ugm-3,27.72183,R,ugm-3,0.69886,R,ugm-3
02-01-2021,07:00,1.45183,R,ugm-3,8.10050,R,ugm-3,10.32661,R,ugm-3,27.72183,R,ugm-3,1.25796,R,ugm-3
02-01-2021,08:00,1.24925,R,ugm-3,7.31032,R,ugm-3,9.22580,R,ugm-3,30.50492,R,ugm-3,0.69886,R,ugm-3
02-01-2021,09:00,1.24925,R,ugm-3,7.31032,R,ugm-3,9.22580,R,ugm-3,29.79551,R,ugm-3,0.55909,R,ugm-3
02-01-2021,10:00,1.35054,R,ugm-3,8.62275,R,ugm-3,10.69355,R,ugm-3,29.68637,R,ugm-3,0.76875,R,ugm-3
02-01-2021,11:00,1.65441,R,ugm-3,7.99956,R,ugm-3,10.53629,R,ugm-3,34.16115,R,ugm-3,0.48920,R,ugm-3
02-01-2021,12:00,1.75570,R,ugm-3,8.10635,R,ugm-3,10.79838,R,ugm-3,37.43538,R,ugm-3,0.48920,R,ugm-3
02-01-2021,13:00,1.68817,R,ugm-3,8.94376,R,ugm-3,11.53226,R,ugm-3,37.32624,R,ugm-3,0.27955,R,ugm-3
02-01-2021,14:00,1.95828,R,ugm-3,9.42073,R,ugm-3,12.42338,R,ugm-3,37.98109,R,ugm-3,0.76875,R,ugm-3
02-01-2021,15:00,1.89076,R,ugm-3,9.62911,R,ugm-3,12.52822,R,ugm-3,38.47222,R,ugm-3,0.76875,R,ugm-3
02-01-2021,16:00,1.55312,R,ugm-3,10.61858,R,ugm-3,13.00000,R,ugm-3,37.65366,R,ugm-3,1.81705,R,ugm-3
02-01-2021,17:00,2.22839,R,ugm-3,11.83721,R,ugm-3,15.25403,R,ugm-3,33.34259,R,ugm-3,1.32784,R,ugm-3
02-01-2021,18:00,2.43097,R,ugm-3,12.94191,R,ugm-3,16.66935,R,ugm-3,28.59495,R,ugm-3,1.46761,R,ugm-3
02-01-2021,19:00,1.78946,R,ugm-3,18.64329,R,ugm-3,21.38709,R,ugm-3,22.53763,R,ugm-3,1.11818,R,ugm-3
02-01-2021,20:00,1.99205,R,ugm-3,21.11089,R,ugm-3,24.16532,R,ugm-3,17.95370,R,ugm-3,1.81705,R,ugm-3
02-01-2021,21:00,1.35054,R,ugm-3,18.37275,R,ugm-3,20.44354,R,ugm-3,21.17336,R,ugm-3,1.46761,R,ugm-3
02-01-2021,22:00,1.51936,R,ugm-3,14.44454,R,ugm-3,16.77419,R,ugm-3,27.88554,R,ugm-3,1.46761,R,ugm-3
02-01-2021,23:00,1.24925,R,ugm-3,13.28612,R,ugm-3,15.20161,R,ugm-3,28.15839,R,ugm-3,1.39773,R,ugm-3
02-01-2021,24:00,0.91161,R,ugm-3,14.32801,R,ugm-3,15.72580,R,ugm-3,27.23069,R,ugm-3,1.25796,R,ugm-3
03-01-2021,01:00,0.49532,R,ugm-3,16.15683,R,ugm-3,16.91630,R,ugm-3,24.94920,R,ugm-3,2.23724,R,ugm-3
03-01-2021,02:00,1.21578,R,ugm-3,15.61136,R,ugm-3,17.47552,R,ugm-3,24.80372,R,ugm-3,1.86437,R,ugm-3
03-01-2021,03:00,0.67543,R,ugm-3,13.43408,R,ugm-3,14.46973,R,ugm-3,27.27682,R,ugm-3,1.25845,R,ugm-3
03-01-2021,04:00,0.81052,R,ugm-3,7.87945,R,ugm-3,9.12222,R,ugm-3,36.05996,R,ugm-3,1.46819,R,ugm-3
03-01-2021,05:00,0.50657,R,ugm-3,4.78048,R,ugm-3,5.55721,R,ugm-3,42.11541,R,ugm-3,1.53810,R,ugm-3
03-01-2021,06:00,0.87806,R,ugm-3,2.74293,R,ugm-3,4.08927,R,ugm-3,48.77096,R,ugm-3,1.39828,R,ugm-3
03-01-2021,07:00,0.70920,R,ugm-3,2.42515,R,ugm-3,3.51258,R,ugm-3,50.57123,R,ugm-3,1.39828,R,ugm-3
03-01-2021,08:00,0.47280,R,ugm-3,2.68277,R,ugm-3,3.40773,R,ugm-3,49.42560,R,ugm-3,1.39828,R,ugm-3
03-01-2021,09:00,0.57412,R,ugm-3,3.83809,R,ugm-3,4.71839,R,ugm-3,41.84264,R,ugm-3,0.34957,R,ugm-3
03-01-2021,10:00,1.18201,R,ugm-3,5.26520,R,ugm-3,7.07759,R,ugm-3,34.25969,R,ugm-3,0.13983,R,ugm-3
03-01-2021,11:00,1.38463,R,ugm-3,5.79333,R,ugm-3,7.91641,R,ugm-3,35.18710,R,ugm-3,0.48940,R,ugm-3
03-01-2021,12:00,1.72235,R,ugm-3,6.16676,R,ugm-3,8.80766,R,ugm-3,34.53246,R,ugm-3,1.18854,R,ugm-3
03-01-2021,13:00,1.68858,R,ugm-3,6.48068,R,ugm-3,9.06979,R,ugm-3,36.87826,R,ugm-3,1.32836,R,ugm-3
03-01-2021,14:00,1.68858,R,ugm-3,8.15833,R,ugm-3,10.74745,R,ugm-3,34.96889,R,ugm-3,1.32836,R,ugm-3
03-01-2021,15:00,1.92498,R,ugm-3,9.57835,R,ugm-3,12.52995,R,ugm-3,30.16816,R,ugm-3,1.67793,R,ugm-3
03-01-2021,16:00,1.51972,R,ugm-3,11.45798,R,ugm-3,13.78818,R,ugm-3,29.89539,R,ugm-3,1.60802,R,ugm-3
03-01-2021,17:00,1.65481,R,ugm-3,8.10526,R,ugm-3,10.64259,R,ugm-3,36.60549,R,ugm-3,1.46819,R,ugm-3
03-01-2021,18:00,1.45218,R,ugm-3,9.88389,R,ugm-3,12.11054,R,ugm-3,30.76825,R,ugm-3,1.04871,R,ugm-3
03-01-2021,19:00,1.14823,R,ugm-3,9.87810,R,ugm-3,11.63870,R,ugm-3,29.67718,R,ugm-3,0.90888,R,ugm-3
03-01-2021,20:00,0.97938,R,ugm-3,7.20112,R,ugm-3,8.70281,R,ugm-3,36.76915,R,ugm-3,1.04871,R,ugm-3
03-01-2021,21:00,0.77675,R,ugm-3,5.78174,R,ugm-3,6.97273,R,ugm-3,40.47880,R,ugm-3,1.11862,R,ugm-3
03-01-2021,22:00,1.35086,R,ugm-3,6.26453,R,ugm-3,8.33582,R,ugm-3,37.58746,R,ugm-3,0.76905,R,ugm-3
03-01-2021,23:00,1.04692,R,ugm-3,4.63351,R,ugm-3,6.23876,R,ugm-3,39.60594,R,ugm-3,0.76905,R,ugm-3
03-01-2021,24:00,1.35086,R,ugm-3,3.38107,R,ugm-3,5.45236,R,ugm-3,39.60594,R,ugm-3,0.76905,R,ugm-3
04-01-2021,01:00,0.81071,R,ugm-3,3.72066,R,ugm-3,4.96373,R,ugm-3,40.28448,R,ugm-3,1.02581,R,ugm-3
04-01-2021,02:00,1.08095,R,ugm-3,3.44612,R,ugm-3,5.10355,R,ugm-3,46.82890,R,ugm-3,1.11906,R,ugm-3
04-01-2021,03:00,0.81071,R,ugm-3,3.10893,R,ugm-3,4.35200,R,ugm-3,48.10142,R,ugm-3,1.32889,R,ugm-3
04-01-2021,04:00,0.70937,R,ugm-3,3.05458,R,ugm-3,4.14227,R,ugm-3,45.70180,R,ugm-3,1.39883,R,ugm-3
04-01-2021,05:00,0.84449,R,ugm-3,3.68634,R,ugm-3,4.98121,R,ugm-3,44.39292,R,ugm-3,1.67859,R,ugm-3
04-01-2021,06:00,0.64181,R,ugm-3,3.73494,R,ugm-3,4.71904,R,ugm-3,44.77468,R,ugm-3,1.39883,R,ugm-3
04-01-2021,07:00,0.87827,R,ugm-3,4.21132,R,ugm-3,5.55798,R,ugm-3,43.35672,R,ugm-3,1.25894,R,ugm-3
04-01-2021,08:00,0.77693,R,ugm-3,4.89104,R,ugm-3,6.08232,R,ugm-3,42.21145,R,ugm-3,1.32889,R,ugm-3
04-01-2021,09:00,0.57425,R,ugm-3,5.77858,R,ugm-3,6.65909,R,ugm-3,39.48461,R,ugm-3,1.18900,R,ugm-3
04-01-2021,10:00,0.16890,R,ugm-3,5.77091,R,ugm-3,6.02988,R,ugm-3,36.37602,R,ugm-3,0.90924,R,ugm-3
04-01-2021,11:00,0.50669,R,ugm-3,4.99079,R,ugm-3,5.76771,R,ugm-3,36.75778,R,ugm-3,1.11906,R,ugm-3
04-01-2021,12:00,0.94583,R,ugm-3,5.83804,R,ugm-3,7.28830,R,ugm-3,35.50343,R,ugm-3,1.60865,R,ugm-3
04-01-2021,13:00,0.67559,R,ugm-3,6.72430,R,ugm-3,7.76020,R,ugm-3,34.84899,R,ugm-3,1.95836,R,ugm-3
04-01-2021,14:00,0.91205,R,ugm-3,7.20068,R,ugm-3,8.59914,R,ugm-3,34.14001,R,ugm-3,2.23812,R,ugm-3
04-01-2021,15:00,0.91205,R,ugm-3,8.24936,R,ugm-3,9.64781,R,ugm-3,33.10381,R,ugm-3,1.95836,R,ugm-3
04-01-2021,16:00,0.64181,R,ugm-3,7.03827,R,ugm-3,8.02237,R,ugm-3,38.28480,R,ugm-3,1.32889,R,ugm-3
04-01-2021,17:00,0.94583,R,ugm-3,6.83428,R,ugm-3,8.28454,R,ugm-3,40.62988,R,ugm-3,1.46877,R,ugm-3
04-01-2021,18:00,0.77693,R,ugm-3,4.20940,R,ugm-3,5.40068,R,ugm-3,50.11928,R,ugm-3,1.39883,R,ugm-3
04-01-2021,19:00,0.81071,R,ugm-3,4.47221,R,ugm-3,5.71528,R,ugm-3,53.28241,R,ugm-3,1.32889,R,ugm-3
04-01-2021,20:00,0.54048,R,ugm-3,2.94652,R,ugm-3,3.77523,R,ugm-3,54.64583,R,ugm-3,1.25894,R,ugm-3
04-01-2021,21:00,0.81071,R,ugm-3,3.00406,R,ugm-3,4.24714,R,ugm-3,55.24574,R,ugm-3,1.11906,R,ugm-3
04-01-2021,22:00,1.01339,R,ugm-3,4.26631,R,ugm-3,5.82015,R,ugm-3,49.79206,R,ugm-3,1.04912,R,ugm-3
04-01-2021,23:00,0.97961,R,ugm-3,4.47540,R,ugm-3,5.97745,R,ugm-3,48.86493,R,ugm-3,0.34971,R,ugm-3
04-01-2021,24:00,0.37158,R,ugm-3,5.82718,R,ugm-3,6.39692,R,ugm-3,46.13810,R,ugm-3,0.27976,R,ugm-3
05-01-2021,01:00,0.13515,R,ugm-3,4.61734,R,ugm-3,4.82457,R,ugm-3,47.75941,R,ugm-3,0.18658,R,ugm-3
05-01-2021,02:00,0.67576,R,ugm-3,3.22906,R,ugm-3,4.26520,R,ugm-3,48.34095,R,ugm-3,0.27988,R,ugm-3
05-01-2021,03:00,0.77712,R,ugm-3,3.16104,R,ugm-3,4.35260,R,ugm-3,48.68625,R,ugm-3,0.27988,R,ugm-3
05-01-2021,04:00,0.67576,R,ugm-3,3.63111,R,ugm-3,4.66725,R,ugm-3,47.32325,R,ugm-3,0.34984,R,ugm-3
05-01-2021,05:00,0.54060,R,ugm-3,3.26148,R,ugm-3,4.09040,R,ugm-3,46.83257,R,ugm-3,0.41981,R,ugm-3
05-01-2021,06:00,0.70954,R,ugm-3,3.47442,R,ugm-3,4.56237,R,ugm-3,46.55997,R,ugm-3,0.27988,R,ugm-3
05-01-2021,07:00,0.81091,R,ugm-3,4.05317,R,ugm-3,5.29654,R,ugm-3,44.92437,R,ugm-3,0.34984,R,ugm-3
05-01-2021,08:00,0.67576,R,ugm-3,4.78481,R,ugm-3,5.82095,R,ugm-3,44.16110,R,ugm-3,0.62972,R,ugm-3
05-01-2021,09:00,0.57439,R,ugm-3,6.04149,R,ugm-3,6.92221,R,ugm-3,41.98030,R,ugm-3,0.34984,R,ugm-3
05-01-2021,10:00,0.81091,R,ugm-3,6.72766,R,ugm-3,7.97103,R,ugm-3,40.39923,R,ugm-3,0.27988,R,ugm-3
05-01-2021,11:00,1.14878,R,ugm-3,7.15353,R,ugm-3,8.91497,R,ugm-3,39.03623,R,ugm-3,0.48978,R,ugm-3
05-01-2021,12:00,1.48666,R,ugm-3,7.47451,R,ugm-3,9.75402,R,ugm-3,38.38199,R,ugm-3,0.76966,R,ugm-3
05-01-2021,13:00,1.45287,R,ugm-3,8.05072,R,ugm-3,10.27843,R,ugm-3,36.69187,R,ugm-3,0.34984,R,ugm-3
05-01-2021,14:00,1.21636,R,ugm-3,8.25605,R,ugm-3,10.12111,R,ugm-3,35.00176,R,ugm-3,1.11950,R,ugm-3
05-01-2021,15:00,1.31772,R,ugm-3,8.31039,R,ugm-3,10.33087,R,ugm-3,33.36616,R,ugm-3,1.32941,R,ugm-3
05-01-2021,16:00,1.18257,R,ugm-3,7.46880,R,ugm-3,9.28205,R,ugm-3,33.42068,R,ugm-3,1.46934,R,ugm-3
05-01-2021,17:00,1.18257,R,ugm-3,7.99321,R,ugm-3,9.80646,R,ugm-3,34.02040,R,ugm-3,1.39938,R,ugm-3
05-01-2021,18:00,1.01363,R,ugm-3,8.35713,R,ugm-3,9.91135,R,ugm-3,34.45656,R,ugm-3,1.32941,R,ugm-3
05-01-2021,19:00,0.87848,R,ugm-3,8.09239,R,ugm-3,9.43938,R,ugm-3,33.52972,R,ugm-3,1.11950,R,ugm-3
05-01-2021,20:00,0.81091,R,ugm-3,6.72766,R,ugm-3,7.97103,R,ugm-3,33.52972,R,ugm-3,1.04953,R,ugm-3
05-01-2021,21:00,0.84469,R,ugm-3,6.51853,R,ugm-3,7.81371,R,ugm-3,31.51249,R,ugm-3,0.97956,R,ugm-3
05-01-2021,22:00,0.91227,R,ugm-3,6.57224,R,ugm-3,7.97103,R,ugm-3,30.53113,R,ugm-3,0.97956,R,ugm-3
05-01-2021,23:00,0.87848,R,ugm-3,6.78137,R,ugm-3,8.12835,R,ugm-3,28.95005,R,ugm-3,0.34984,R,ugm-3
05-01-2021,24:00,0.94606,R,ugm-3,6.31067,R,ugm-3,7.76127,R,ugm-3,28.24129,R,ugm-3,0.76966,R,ugm-3
06-01-2021,01:00,0.81110,R,ugm-3,6.09908,R,ugm-3,7.34275,R,ugm-3,29.28627,R,ugm-3,0.65330,R,ugm-3
06-01-2021,02:00,0.99134,R,ugm-3,6.10243,R,ugm-3,7.62247,R,ugm-3,31.32105,R,ugm-3,1.11994,R,ugm-3
06-01-2021,03:00,1.14906,R,ugm-3,4.89906,R,ugm-3,6.66092,R,ugm-3,32.59279,R,ugm-3,0.97995,R,ugm-3
06-01-2021,04:00,1.11526,R,ugm-3,4.37395,R,ugm-3,6.08399,R,ugm-3,34.39139,R,ugm-3,0.76996,R,ugm-3
06-01-2021,05:00,1.08147,R,ugm-3,4.00618,R,ugm-3,5.66440,R,ugm-3,34.60940,R,ugm-3,0.76996,R,ugm-3
06-01-2021,06:00,0.94628,R,ugm-3,4.05611,R,ugm-3,5.50706,R,ugm-3,35.15443,R,ugm-3,0.90995,R,ugm-3
06-01-2021,07:00,1.08147,R,ugm-3,4.68801,R,ugm-3,6.34623,R,ugm-3,33.73735,R,ugm-3,1.04994,R,ugm-3
06-01-2021,08:00,0.98008,R,ugm-3,6.67915,R,ugm-3,8.18192,R,ugm-3,31.17571,R,ugm-3,0.76996,R,ugm-3
06-01-2021,09:00,1.08147,R,ugm-3,8.93631,R,ugm-3,10.59454,R,ugm-3,26.05243,R,ugm-3,0.48997,R,ugm-3
06-01-2021,10:00,1.85877,R,ugm-3,10.36687,R,ugm-3,13.21695,R,ugm-3,23.54529,R,ugm-3,0.48997,R,ugm-3
06-01-2021,11:00,1.82498,R,ugm-3,11.67745,R,ugm-3,14.47570,R,ugm-3,22.78225,R,ugm-3,0.34998,R,ugm-3
06-01-2021,12:00,2.94024,R,ugm-3,11.06881,R,ugm-3,15.57711,R,ugm-3,25.23488,R,ugm-3,1.04994,R,ugm-3
06-01-2021,13:00,3.17681,R,ugm-3,10.33894,R,ugm-3,15.20998,R,ugm-3,32.10226,R,ugm-3,1.32993,R,ugm-3
06-01-2021,14:00,1.85877,R,ugm-3,7.37732,R,ugm-3,10.22740,R,ugm-3,39.78718,R,ugm-3,1.32993,R,ugm-3
06-01-2021,15:00,1.65600,R,ugm-3,5.32807,R,ugm-3,7.86723,R,ugm-3,36.84402,R,ugm-3,1.81990,R,ugm-3
06-01-2021,16:00,1.65600,R,ugm-3,5.43297,R,ugm-3,7.97213,R,ugm-3,36.62601,R,ugm-3,1.88990,R,ugm-3
06-01-2021,17:00,1.48702,R,ugm-3,7.31796,R,ugm-3,9.59802,R,ugm-3,35.86297,R,ugm-3,1.32993,R,ugm-3
06-01-2021,18:00,1.04767,R,ugm-3,9.87975,R,ugm-3,11.48615,R,ugm-3,32.53828,R,ugm-3,0.41998,R,ugm-3
06-01-2021,19:00,1.41943,R,ugm-3,11.77480,R,ugm-3,13.95122,R,ugm-3,27.03348,R,ugm-3,0.20999,R,ugm-3
06-01-2021,20:00,1.25045,R,ugm-3,16.12486,R,ugm-3,18.04218,R,ugm-3,20.38412,R,ugm-3,0.48997,R,ugm-3
06-01-2021,21:00,1.31804,R,ugm-3,16.91284,R,ugm-3,18.93380,R,ugm-3,18.74903,R,ugm-3,0.97995,R,ugm-3
06-01-2021,22:00,1.11526,R,ugm-3,18.84965,R,ugm-3,20.55969,R,ugm-3,16.95043,R,ugm-3,0.55997,R,ugm-3
06-01-2021,23:00,1.35183,R,ugm-3,19.43098,R,ugm-3,21.50376,R,ugm-3,17.54996,R,ugm-3,0.13999,R,ugm-3
06-01-2021,24:00,0.98008,R,ugm-3,18.68979,R,ugm-3,20.19255,R,ugm-3,19.94809,R,ugm-3,0.13999,R,ugm-3
07-01-2021,01:00,0.94651,R,ugm-3,17.43265,R,ugm-3,18.88395,R,ugm-3,20.63207,R,ugm-3,0.84029,R,ugm-3
07-01-2021,02:00,0.81129,R,ugm-3,25.33344,R,ugm-3,26.57741,R,ugm-3,13.94844,R,ugm-3,0.93365,R,ugm-3
07-01-2021,03:00,1.01412,R,ugm-3,22.83681,R,ugm-3,24.39177,R,ugm-3,18.19836,R,ugm-3,0.49017,R,ugm-3
07-01-2021,04:00,0.67608,R,ugm-3,16.06382,R,ugm-3,17.10046,R,ugm-3,25.88090,R,ugm-3,0.42014,R,ugm-3
07-01-2021,05:00,0.77749,R,ugm-3,13.02328,R,ugm-3,14.21542,R,ugm-3,28.71418,R,ugm-3,0.63021,R,ugm-3
07-01-2021,06:00,0.77749,R,ugm-3,10.55788,R,ugm-3,11.75001,R,ugm-3,32.96409,R,ugm-3,0.28009,R,ugm-3
07-01-2021,07:00,0.70988,R,ugm-3,9.82225,R,ugm-3,10.91073,R,ugm-3,37.81336,R,ugm-3,0.07002,R,ugm-3
07-01-2021,08:00,0.60847,R,ugm-3,9.87284,R,ugm-3,10.80581,R,ugm-3,38.63065,R,ugm-3,0.21007,R,ugm-3
07-01-2021,09:00,0.91271,R,ugm-3,11.55702,R,ugm-3,12.95649,R,ugm-3,35.03457,R,ugm-3,0.14005,R,ugm-3
07-01-2021,10:00,1.79161,R,ugm-3,11.62569,R,ugm-3,14.37278,R,ugm-3,34.10830,R,ugm-3,0.14005,R,ugm-3
07-01-2021,11:00,2.80573,R,ugm-3,12.79841,R,ugm-3,17.10046,R,ugm-3,33.56344,R,ugm-3,0.35012,R,ugm-3
07-01-2021,12:00,2.63671,R,ugm-3,13.11003,R,ugm-3,17.15292,R,ugm-3,30.94811,R,ugm-3,,,
07-01-2021,13:00,2.65924,R,ugm-3,13.61751,R,ugm-3,17.69496,R,ugm-3,28.00586,R,ugm-3,,,
07-01-2021,14:00,2.43388,R,ugm-3,12.94892,R,ugm-3,16.68082,R,ugm-3,34.87111,R,ugm-3,,,
07-01-2021,15:00,2.36627,R,ugm-3,14.41642,R,ugm-3,18.04466,R,ugm-3,38.41271,R,ugm-3,,,
07-01-2021,16:00,1.58879,R,ugm-3,15.24137,R,ugm-3,17.67747,R,ugm-3,40.31972,R,ugm-3,,,
07-01-2021,17:00,0.57467,R,ugm-3,17.16352,R,ugm-3,18.04466,R,ugm-3,33.29101,R,ugm-3,,,
07-01-2021,18:00,1.48737,R,ugm-3,17.54754,R,ugm-3,19.82814,R,ugm-3,30.45773,R,ugm-3,,,
07-01-2021,19:00,1.31835,R,ugm-3,14.39710,R,ugm-3,16.41854,R,ugm-3,33.78139,R,ugm-3,,,
07-01-2021,20:00,2.06204,R,ugm-3,12.52242,R,ugm-3,15.68417,R,ugm-3,32.52820,R,ugm-3,,,
07-01-2021,21:00,1.72400,R,ugm-3,9.89341,R,ugm-3,12.53684,R,ugm-3,37.81336,R,ugm-3,,,
07-01-2021,22:00,1.21694,R,ugm-3,12.82156,R,ugm-3,14.68751,R,ugm-3,29.58596,R,ugm-3,,,
07-01-2021,23:00,1.11553,R,ugm-3,13.29179,R,ugm-3,15.00225,R,ugm-3,28.22380,R,ugm-3,,,
07-01-2021,24:00,0.91271,R,ugm-3,11.97667,R,ugm-3,13.37613,R,ugm-3,29.15007,R,ugm-3,,,
08-01-2021,01:00,1.03690,R,ugm-3,8.48293,R,ugm-3,10.07282,R,ugm-3,36.74857,R,ugm-3,,,
08-01-2021,02:00,1.80331,R,ugm-3,7.44769,R,ugm-3,10.21272,R,ugm-3,29.34075,R,ugm-3,,,
08-01-2021,03:00,1.52154,R,ugm-3,4.53961,R,ugm-3,6.87260,R,ugm-3,39.43572,R,ugm-3,,,
08-01-2021,04:00,1.31867,R,ugm-3,3.85388,R,ugm-3,5.87581,R,ugm-3,37.36589,R,ugm-3,,,
08-01-2021,05:00,1.52154,R,ugm-3,5.16916,R,ugm-3,7.50215,R,ugm-3,29.24997,R,ugm-3,,,
08-01-2021,06:00,1.35248,R,ugm-3,5.11360,R,ugm-3,7.18738,R,ugm-3,34.86030,R,ugm-3,,,
08-01-2021,07:00,1.75822,R,ugm-3,4.49147,R,ugm-3,7.18738,R,ugm-3,34.15220,R,ugm-3,,,
08-01-2021,08:00,1.45392,R,ugm-3,4.64330,R,ugm-3,6.87260,R,ugm-3,32.24578,R,ugm-3,,,
08-01-2021,09:00,1.38629,R,ugm-3,5.69131,R,ugm-3,7.81693,R,ugm-3,30.88405,R,ugm-3,,,
08-01-2021,10:00,2.16397,R,ugm-3,6.17769,R,ugm-3,9.49574,R,ugm-3,32.30025,R,ugm-3,,,
08-01-2021,11:00,3.68551,R,ugm-3,7.46462,R,ugm-3,13.11566,R,ugm-3,31.81003,R,ugm-3,,,
08-01-2021,12:00,4.73368,R,ugm-3,9.47737,R,ugm-3,16.73558,R,ugm-3,30.17595,R,ugm-3,,,
08-01-2021,13:00,5.88329,R,ugm-3,11.70182,R,ugm-3,20.72274,R,ugm-3,26.63545,R,ugm-3,,,
08-01-2021,14:00,4.29413,R,ugm-3,12.77447,R,ugm-3,19.35871,R,ugm-3,30.77511,R,ugm-3,,,
08-01-2021,15:00,3.55026,R,ugm-3,11.71162,R,ugm-3,17.15528,R,ugm-3,31.10193,R,ugm-3,,,
08-01-2021,16:00,4.39556,R,ugm-3,17.55043,R,ugm-3,24.29019,R,ugm-3,19.00976,R,ugm-3,,,
08-01-2021,17:00,4.63225,R,ugm-3,27.62758,R,ugm-3,34.73025,R,ugm-3,6.15502,R,ugm-3,,,
08-01-2021,18:00,1.21723,R,ugm-3,20.16790,R,ugm-3,22.03430,R,ugm-3,24.45668,R,ugm-3,,,
08-01-2021,19:00,1.42011,R,ugm-3,16.13199,R,ugm-3,18.30946,R,ugm-3,30.01254,R,ugm-3,,,
08-01-2021,20:00,1.45392,R,ugm-3,16.49985,R,ugm-3,18.72916,R,ugm-3,27.18014,R,ugm-3,,,
08-01-2021,21:00,0.94674,R,ugm-3,24.62228,R,ugm-3,26.07392,R,ugm-3,23.20389,R,ugm-3,,,
08-01-2021,22:00,1.48773,R,ugm-3,28.25209,R,ugm-3,30.53324,R,ugm-3,22.22344,R,ugm-3,,,
08-01-2021,23:00,0.74387,R,ugm-3,25.56290,R,ugm-3,26.70347,R,ugm-3,22.22344,R,ugm-3,,,
08-01-2021,24:00,1.11580,R,ugm-3,24.36306,R,ugm-3,26.07392,R,ugm-3,20.37149,R,ugm-3,,,
09-01-2021,01:00,0.58622,R,ugm-3,24.00683,R,ugm-3,24.90568,R,ugm-3,19.82065,R,ugm-3,,,
09-01-2021,02:00,0.58622,R,ugm-3,19.52940,R,ugm-3,20.42825,R,ugm-3,18.15078,R,ugm-3,,,
09-01-2021,03:00,0.94696,R,ugm-3,16.65010,R,ugm-3,18.10209,R,ugm-3,20.74634,R,ugm-3,,,
09-01-2021,04:00,0.81168,R,ugm-3,14.44392,R,ugm-3,15.68848,R,ugm-3,20.80079,R,ugm-3,,,
09-01-2021,05:00,0.67640,R,ugm-3,12.50008,R,ugm-3,13.53722,R,ugm-3,22.27101,R,ugm-3,,,
09-01-2021,06:00,0.71022,R,ugm-3,10.50684,R,ugm-3,11.59583,R,ugm-3,25.04808,R,ugm-3,,,
09-01-2021,07:00,0.64258,R,ugm-3,7.98706,R,ugm-3,8.97234,R,ugm-3,27.98850,R,ugm-3,,,
09-01-2021,08:00,0.37202,R,ugm-3,7.82475,R,ugm-3,8.39517,R,ugm-3,30.32995,R,ugm-3,,,
09-01-2021,09:00,1.62337,R,ugm-3,7.53261,R,ugm-3,10.02174,R,ugm-3,30.22105,R,ugm-3,,,
09-01-2021,10:00,1.69101,R,ugm-3,6.64185,R,ugm-3,9.23469,R,ugm-3,34.84950,R,ugm-3,,,
09-01-2021,11:00,1.92775,R,ugm-3,7.01343,R,ugm-3,9.96927,R,ugm-3,35.06731,R,ugm-3,,,
09-01-2021,12:00,2.63797,R,ugm-3,7.76089,R,ugm-3,11.80571,R,ugm-3,33.86935,R,ugm-3,,,
09-01-2021,13:00,2.80707,R,ugm-3,8.23618,R,ugm-3,12.54029,R,ugm-3,34.46833,R,ugm-3,,,
09-01-2021,14:00,2.67179,R,ugm-3,7.65656,R,ugm-3,11.75324,R,ugm-3,38.66116,R,ugm-3,,,
09-01-2021,15:00,2.19831,R,ugm-3,8.64490,R,ugm-3,12.01559,R,ugm-3,40.56699,R,ugm-3,,,
09-01-2021,16:00,1.38663,R,ugm-3,11.20121,R,ugm-3,13.32734,R,ugm-3,42.47282,R,ugm-3,,,
09-01-2021,17:00,1.35280,R,ugm-3,12.04012,R,ugm-3,14.11438,R,ugm-3,37.89883,R,ugm-3,,,
09-01-2021,18:00,1.21752,R,ugm-3,13.34941,R,ugm-3,15.21625,R,ugm-3,36.42861,R,ugm-3,,,
09-01-2021,19:00,1.35280,R,ugm-3,17.86427,R,ugm-3,19.93854,R,ugm-3,32.18133,R,ugm-3,,,
09-01-2021,20:00,1.11606,R,ugm-3,25.52057,R,ugm-3,27.23184,R,ugm-3,23.85012,R,ugm-3,,,
09-01-2021,21:00,1.18370,R,ugm-3,29.77185,R,ugm-3,31.58684,R,ugm-3,19.05832,R,ugm-3,,,
09-01-2021,22:00,1.55573,R,ugm-3,43.26334,R,ugm-3,45.64875,R,ugm-3,7.35107,R,ugm-3,,,
09-01-2021,23:00,3.38201,R,ugm-3,47.80885,R,ugm-3,52.99453,R,ugm-3,6.47983,R,ugm-3,,,
09-01-2021,24:00,1.08224,R,ugm-3,39.10964,R,ugm-3,40.76906,R,ugm-3,17.69701,R,ugm-3,,,
10-01-2021,01:00,1.30802,R,ugm-3,35.98777,R,ugm-3,37.99338,R,ugm-3,16.83870,R,ugm-3,,,
10-01-2021,02:00,1.21782,R,ugm-3,34.72670,R,ugm-3,36.59399,R,ugm-3,13.79032,R,ugm-3,,,
10-01-2021,03:00,1.08250,R,ugm-3,22.16477,R,ugm-3,23.82458,R,ugm-3,26.45563,R,ugm-3,,,
10-01-2021,04:00,1.28547,R,ugm-3,16.97319,R,ugm-3,18.94421,R,ugm-3,23.78829,R,ugm-3,,,
10-01-2021,05:00,0.94719,R,ugm-3,12.71647,R,ugm-3,14.16880,R,ugm-3,26.83668,R,ugm-3,,,
10-01-2021,06:00,0.94719,R,ugm-3,8.99060,R,ugm-3,10.44293,R,ugm-3,34.45764,R,ugm-3,,,
10-01-2021,07:00,0.84570,R,ugm-3,10.14327,R,ugm-3,11.44000,R,ugm-3,25.80241,R,ugm-3,,,
10-01-2021,08:00,0.91336,R,ugm-3,8.09788,R,ugm-3,9.49835,R,ugm-3,29.23184,R,ugm-3,,,
10-01-2021,09:00,1.21782,R,ugm-3,6.89638,R,ugm-3,8.76367,R,ugm-3,30.70160,R,ugm-3,,,
10-01-2021,10:00,1.75907,R,ugm-3,6.32886,R,ugm-3,9.02605,R,ugm-3,31.51813,R,ugm-3,,,
10-01-2021,11:00,2.16500,R,ugm-3,6.17872,R,ugm-3,9.49835,R,ugm-3,32.06248,R,ugm-3,,,
10-01-2021,12:00,2.33415,R,ugm-3,5.91937,R,ugm-3,9.49835,R,ugm-3,33.96772,R,ugm-3,,,
10-01-2021,13:00,2.84157,R,ugm-3,6.76812,R,ugm-3,11.12513,R,ugm-3,33.36893,R,ugm-3,,,
10-01-2021,14:00,2.63860,R,ugm-3,7.55163,R,ugm-3,11.59743,R,ugm-3,32.38909,R,ugm-3,,,
10-01-2021,15:00,2.40180,R,ugm-3,8.12463,R,ugm-3,11.80734,R,ugm-3,33.58667,R,ugm-3,,,
10-01-2021,16:00,2.19883,R,ugm-3,6.96648,R,ugm-3,10.33798,R,ugm-3,38.26812,R,ugm-3,,,
10-01-2021,17:00,2.77391,R,ugm-3,5.66489,R,ugm-3,9.91816,R,ugm-3,29.34071,R,ugm-3,,,
10-01-2021,18:00,1.96204,R,ugm-3,6.75232,R,ugm-3,9.76073,R,ugm-3,40.06449,R,ugm-3,,,
10-01-2021,19:00,2.53711,R,ugm-3,6.02797,R,ugm-3,9.91816,R,ugm-3,41.53425,R,ugm-3,,,
10-01-2021,20:00,2.63860,R,ugm-3,7.86650,R,ugm-3,11.91229,R,ugm-3,33.09676,R,ugm-3,,,
10-01-2021,21:00,2.84157,R,ugm-3,6.34831,R,ugm-3,10.70532,R,ugm-3,35.05643,R,ugm-3,,,
10-01-2021,22:00,2.23266,R,ugm-3,6.38984,R,ugm-3,9.81321,R,ugm-3,41.75199,R,ugm-3,,,
10-01-2021,23:00,1.89438,R,ugm-3,6.27881,R,ugm-3,9.18348,R,ugm-3,50.29836,R,ugm-3,,,
10-01-2021,24:00,1.45461,R,ugm-3,7.16302,R,ugm-3,9.39339,R,ugm-3,51.16933,R,ugm-3,,,
11-01-2021,01:00,1.48880,R,ugm-3,9.05381,R,ugm-3,11.33660,R,ugm-3,44.91346,R,ugm-3,,,
11-01-2021,02:00,1.44368,R,ugm-3,10.31263,R,ugm-3,12.52624,R,ugm-3,40.77765,R,ugm-3,,,
11-01-2021,03:00,1.28578,R,ugm-3,14.56104,R,ugm-3,16.53254,R,ugm-3,33.79393,R,ugm-3,,,
11-01-2021,04:00,1.15043,R,ugm-3,15.92322,R,ugm-3,17.68719,R,ugm-3,36.51486,R,ugm-3,,,
11-01-2021,05:00,1.28578,R,ugm-3,15.13837,R,ugm-3,17.10987,R,ugm-3,40.21532,R,ugm-3,,,
11-01-2021,06:00,0.87974,R,ugm-3,7.36347,R,ugm-3,8.71239,R,ugm-3,57.19391,R,ugm-3,,,
11-01-2021,07:00,0.77823,R,ugm-3,5.36726,R,ugm-3,6.56053,R,ugm-3,64.86693,R,ugm-3,,,
11-01-2021,08:00,1.38729,R,ugm-3,4.69581,R,ugm-3,6.82295,R,ugm-3,68.07763,R,ugm-3,,,
11-01-2021,09:00,0.60905,R,ugm-3,4.15711,R,ugm-3,5.09097,R,ugm-3,70.85298,R,ugm-3,,,
11-01-2021,10:00,0.81207,R,ugm-3,4.26569,R,ugm-3,5.51085,R,ugm-3,70.90740,R,ugm-3,,,
11-01-2021,11:00,0.81207,R,ugm-3,3.79333,R,ugm-3,5.03849,R,ugm-3,76.07716,R,ugm-3,,,
11-01-2021,12:00,0.64289,R,ugm-3,2.84560,R,ugm-3,3.83135,R,ugm-3,76.51251,R,ugm-3,,,